Weather History for KDAN - January, 2014

Change the Weather History Date:

Monday, January 13, 2014

  Actual Average Record
Temperature  
Mean Temperature 45 °F 37 °F  
Max Temperature 60 °F 46 °F 76 °F (2013)
Min Temperature 29 °F 29 °F 5 °F (1981)
Degree Days  
Heating Degree Days 20 28  
Month to date heating degree days 394 359  
Since 1 July heating degree days 1790 1841  
Cooling Degree Days 0 0  
Month to date cooling degree days 0 0  
Year to date cooling degree days 0 0  
Moisture  
Dew Point 33 °F    
Average Humidity 64    
Maximum Humidity 92    
Minimum Humidity 36    
Precipitation  
Precipitation 0.03 in 0.12 in 0.91 in (1975)
Month to date precipitation 2.86 1.44  
Year to date precipitation 2.86 1.44  
Snow  
Snow 0.00 in - - ()
Month to date snowfall 0.0  
Since 1 July snowfall T  
Snow Depth 0.00 in    
Sea Level Pressure  
Sea Level Pressure 30.05 in    
Wind  
Wind Speed 5 mph (SSW)    
Max Wind Speed 18 mph    
Max Gust Speed 25 mph    
Visibility 10 miles    
Events Rain    
T = Trace of Precipitation, MM = Missing Value Source: NWS Daily Summary

Daily Weather History Graph

Daily Weather History Graph

Search for Another Location

Airport or City:

Trip Planner

Search our weather history database for the weather conditions in past years. The results will help you decide how hot, cold, wet, or windy it might be!

Date:

Astronomy

Jan. 13, 2014 Rise Set
Actual Time 7:29 AM EST 5:23 PM EST
Civil Twilight 7:00 AM EST 5:51 PM EST
Nautical Twilight 6:29 AM EST 6:23 PM EST
Astronomical Twilight 5:57 AM EST 6:54 PM EST
Moon 3:36 PM EST (1/13) 5:16 AM EST (1/13)
Length of Visible Light 10h 50m
Length of Day
9h 54m
Waxing Gibbous, 95% of the Moon is Illuminated
Jan 13
Waxing Gibbous
Jan 15
Full
Jan 24
Last Quarter
Jan 30
New
Feb 6
First Quarter

Hourly Weather History & Observations

Time (EST) Temp. Windchill Dew Point Humidity Pressure Visibility Wind Dir Wind Speed Gust Speed Precip Events Conditions
12:53 AM 33.1 °F 30.0 °F 28.0 °F 82% 30.13 in 10.0 mi South 3.5 mph - N/A   Clear
1:53 AM 34.0 °F 31.0 °F 28.0 °F 79% 30.12 in 10.0 mi South 3.5 mph - N/A   Clear
2:53 AM 32.0 °F - 27.0 °F 82% 30.12 in 10.0 mi Calm Calm - N/A   Clear
3:53 AM 33.1 °F - 28.9 °F 85% 30.12 in 10.0 mi Calm Calm - N/A   Clear
4:53 AM 30.9 °F - 28.0 °F 89% 30.11 in 10.0 mi Calm Calm - N/A   Clear
5:53 AM 32.0 °F - 28.0 °F 85% 30.12 in 10.0 mi Calm Calm - N/A   Clear
6:53 AM 30.9 °F 27.5 °F 28.0 °F 89% 30.13 in 9.0 mi WSW 3.5 mph - N/A   Clear
7:53 AM 30.9 °F - 28.0 °F 89% 30.13 in 10.0 mi Calm Calm - N/A   Clear
8:53 AM 37.9 °F 35.5 °F 32.0 °F 79% 30.13 in 10.0 mi SW 3.5 mph - N/A   Clear
9:53 AM 46.9 °F - 35.1 °F 63% 30.12 in 10.0 mi SSW 5.8 mph - N/A   Clear
10:53 AM 53.1 °F - 36.0 °F 52% 30.10 in 10.0 mi SW 9.2 mph - N/A   Clear
11:53 AM 57.0 °F - 34.0 °F 42% 30.04 in 10.0 mi SW 15.0 mph 23.0 mph N/A   Clear
12:53 PM 60.1 °F - 33.1 °F 36% 30.01 in 10.0 mi SSW 11.5 mph 20.7 mph N/A   Clear
1:53 PM 59.0 °F - 34.0 °F 39% 30.01 in 10.0 mi SSW 12.7 mph 25.3 mph N/A   Clear
2:53 PM 59.0 °F - 34.0 °F 39% 29.99 in 10.0 mi SW 16.1 mph 23.0 mph N/A   Clear
3:53 PM 57.9 °F - 34.0 °F 41% 29.99 in 10.0 mi SSW 10.4 mph 18.4 mph N/A   Clear
4:53 PM 57.0 °F - 34.0 °F 42% 29.97 in 10.0 mi SSW 6.9 mph 17.3 mph N/A   Clear
5:53 PM 55.0 °F - 35.1 °F 47% 29.98 in 10.0 mi SSW 6.9 mph - N/A   Clear
6:53 PM 53.1 °F - 35.1 °F 50% 29.98 in 10.0 mi SW 4.6 mph - N/A   Clear
7:53 PM 52.0 °F - 35.1 °F 53% 29.99 in 10.0 mi SSW 4.6 mph - N/A   Clear
8:53 PM 46.9 °F - 35.1 °F 63% 29.97 in 10.0 mi South 3.5 mph - N/A   Clear
9:53 PM 50.0 °F - 36.0 °F 59% 29.95 in 10.0 mi Calm Calm - N/A   Mostly Cloudy
10:53 PM 48.0 °F - 37.9 °F 68% 29.94 in 10.0 mi Calm Calm - 0.00 in   Mostly Cloudy
11:53 PM 46.9 °F - 39.9 °F 77% 29.94 in 7.0 mi Calm Calm - 0.02 in Rain Light Rain